User: anonymous   Login
Location: Desert Center
(33.7130°N, 115.4010°W)
Time: 05:47:57
(UTC-08:00)
Language:

USA 215 - Orbit

View from above orbital plane
View from above orbital plane
View from above satellite
View from above satellite

Ground track
Ground track

The orbit data is extracted from the following two-line orbital elements,

1 37162U 10046A   17049.80610388 0.00000000  00000-0  00000-0 0    08
2 37162 123.0013 168.1030 0005882 126.1021 233.8979 13.41413963    02
Epoch (UTC): 18 February 2017 19:20:47
Eccentricity: 0.0005882
inclination: 123.0013°
perigee height: 1099 km
apogee height: 1108 km
right ascension of ascending node: 168.1030°
argument of perigee: 126.1021°
revolutions per day: 13.41413963
mean anomaly at epoch: 233.8979°
orbit number at epoch: 0

The dashed part of the orbit path shows where the satellite is in the earth's shadow,  

DLR